TimeEST,TemperatureF,Dew PointF,Humidity,Sea Level PressureIn,VisibilityMPH,Wind Direction,Wind SpeedMPH,Gust SpeedMPH,PrecipitationIn,Events,Conditions,WindDirDegrees,DateUTC
12:55 AM,28.8,20.7,72,30.10,10.0,WSW,6.9,-,N/A,,Overcast,250,2013-01-04 05:55:00
1:55 AM,26.4,19.8,76,30.10,10.0,WSW,8.1,-,N/A,,Clear,240,2013-01-04 06:55:00
2:55 AM,26.4,19.0,74,30.10,10.0,WSW,4.6,-,N/A,,Clear,250,2013-01-04 07:55:00
3:55 AM,27.7,19.6,72,30.11,10.0,West,6.9,-,N/A,,Mostly Cloudy,260,2013-01-04 08:55:00
4:55 AM,29.8,19.8,66,30.11,10.0,WSW,6.9,-,N/A,,Overcast,240,2013-01-04 09:55:00
5:55 AM,32.5,19.8,59,30.11,10.0,WSW,9.2,-,N/A,,Overcast,250,2013-01-04 10:55:00
6:55 AM,30.7,19.2,62,30.12,10.0,WSW,10.4,-,N/A,,Partly Cloudy,250,2013-01-04 11:55:00
7:55 AM,32.2,20.1,61,30.12,10.0,WSW,9.2,-,N/A,,Overcast,250,2013-01-04 12:55:00
8:55 AM,33.4,19.9,58,30.12,10.0,West,12.7,-,N/A,,Overcast,260,2013-01-04 13:55:00
9:55 AM,34.3,19.9,56,30.12,10.0,West,12.7,-,N/A,,Overcast,270,2013-01-04 14:55:00
10:55 AM,35.1,19.6,53,30.10,10.0,West,12.7,19.6,N/A,,Overcast,280,2013-01-04 15:55:00
11:55 AM,35.4,19.4,52,30.08,10.0,WNW,18.4,25.3,N/A,,Overcast,290,2013-01-04 16:55:00
12:55 PM,36.3,19.2,50,30.04,10.0,WNW,17.3,25.3,N/A,,Overcast,290,2013-01-04 17:55:00
1:55 PM,37.6,19.9,49,30.02,10.0,West,17.3,26.5,N/A,,Scattered Clouds,280,2013-01-04 18:55:00
2:55 PM,37.9,19.9,48,30.01,10.0,WNW,15.0,20.7,N/A,,Clear,290,2013-01-04 19:55:00
3:55 PM,37.4,19.6,49,30.01,10.0,West,16.1,24.2,N/A,,Clear,280,2013-01-04 20:55:00
4:55 PM,35.4,19.9,53,30.00,10.0,West,10.4,-,N/A,,Clear,260,2013-01-04 21:55:00
5:55 PM,35.2,20.7,55,30.01,10.0,West,11.5,-,N/A,,Clear,260,2013-01-04 22:55:00
6:55 PM,34.7,20.5,56,30.02,10.0,West,6.9,-,N/A,,Clear,270,2013-01-04 23:55:00
7:55 PM,35.1,20.1,55,30.02,10.0,West,9.2,-,N/A,,Clear,260,2013-01-05 00:55:00
8:55 PM,33.4,20.1,58,30.03,10.0,West,8.1,-,N/A,,Clear,260,2013-01-05 01:55:00
9:55 PM,32.5,20.5,61,30.04,10.0,West,9.2,-,N/A,,Clear,260,2013-01-05 02:55:00
10:55 PM,32.7,20.3,60,30.05,10.0,West,10.4,-,N/A,,Clear,260,2013-01-05 03:55:00
11:55 PM,31.6,20.5,63,30.05,10.0,WSW,9.2,-,N/A,,Clear,250,2013-01-05 04:55:00